User: anonymous
Location: Plymouth
(43.7570°N, 71.6890°W)
Time: 15:09:27
(UTC-04:00)
Language:

COSMOS 2406 - Orbit

View from above orbital plane
View from above orbital plane
View from above satellite
View from above satellite

Ground track
Ground track

The orbit data is extracted from the following two-line orbital elements,

1 28352U 04021A   14244.10510234 -.00000239  00000-0 -10593-3 0  3742
2 28352 071.0025 094.1210 0015481 207.8614 287.1680 14.11357156526910
Epoch (UTC): 01 September 2014 02:31:20
Eccentricity: 0.0015481
inclination: 71.0025°
perigee height: 843 km
apogee height: 866 km
right ascension of ascending node: 94.1210°
argument of perigee: 207.8614°
revolutions per day: 14.11357156
mean anomaly at epoch: 287.1680°
orbit number at epoch: 52691

The dashed part of the orbit path shows where the satellite is in the earth's shadow,  

DLR